Stations météo

réclame
Mon MeteoGroup
Wilhelminadorp aws, Pays-Bas (6323): Température de l'air & dewpoint: 09.12.2018 13:00:00 - 15.12.2018 13:00:00 (CET)Wilhelminadorp aws, Pays-Bas (6323): Température de l'air 5cm & Température de l'air -5cm: 09.12.2018 13:00:00 - 15.12.2018 13:00:00 (CET)Wilhelminadorp aws, Pays-Bas (6323): Température de l'air -20cm & Température de l'air -100cm: 09.12.2018 13:00:00 - 15.12.2018 13:00:00 (CET)Wilhelminadorp aws, Pays-Bas (6323): Vitesse du vent & gusts: 09.12.2018 13:00:00 - 15.12.2018 13:00:00 (CET)Wilhelminadorp aws, Pays-Bas (6323): Direction du vent: 09.12.2018 13:00:00 - 15.12.2018 13:00:00 (CET)Wilhelminadorp aws, Pays-Bas (6323): reduced air pressure: 09.12.2018 13:00:00 - 15.12.2018 13:00:00 (CET)Wilhelminadorp aws, Pays-Bas (6323): Quantités de précipitations: 09.12.2018 13:00:00 - 15.12.2018 13:00:00 (CET)
Date & Time tt [°C] td [°C] tt 5cm [°C] tt -5cm [°C] tt -20cm [°C] tt -100cm [°C] ff [km/h] ff [knt] fx [km/h] fx [knt] dd ppp [hPa] rr [mm]
15.12.2018 13:00:00 1,1 -4,9 0,7 3,2 4,1 9,0 23 13 - - SE 1021,7 -
15.12.2018 12:00:00 1,3 -4,8 1,4 3,1 4,1 9,1 22 12 36 19 SSE 1022,7 0,0
15.12.2018 11:00:00 1,2 -4,6 0,9 3,1 4,1 9,1 22 12 32 18 SE 1023,5 0,0
15.12.2018 10:00:00 0,7 -5,4 0,1 3,2 4,2 9,1 18 10 32 18 SSE 1023,7 0,0
15.12.2018 09:00:00 0,4 -5,8 -0,4 3,2 4,2 9,1 18 10 29 16 SSE 1023,9 0,0
15.12.2018 08:00:00 0,7 -5,6 0,2 3,3 4,2 9,1 14 8 29 16 SSE 1024,3 0,0
15.12.2018 07:00:00 0,8 -5,5 0,3 3,3 4,3 9,1 14 8 25 14 SSE 1024,3 0,0
15.12.2018 06:00:00 0,5 -4,7 0,1 3,4 4,3 9,1 11 6 22 12 SE 1024,3 0,0
15.12.2018 05:00:00 0,7 -4,9 0,2 3,4 4,3 9,1 11 6 18 10 SE 1024,7 0,0
15.12.2018 04:00:00 0,7 -3,5 0,2 3,4 4,3 9,2 11 6 18 10 ESE 1025,1 0,0
15.12.2018 03:00:00 1,0 -4,0 0,6 3,5 4,3 9,2 11 6 18 10 SSE 1025,2 0,0
15.12.2018 02:00:00 1,2 -3,3 0,4 3,5 4,3 9,2 11 6 14 8 SSE 1025,2 0,0
15.12.2018 01:00:00 0,9 -1,2 0,6 3,5 4,3 9,2 7 4 14 8 S 1025,7 0,0
15.12.2018 00:00:00 0,9 -1,2 0,6 3,5 4,3 9,2 11 6 14 8 ESE 1025,3 0,0
14.12.2018 23:00:00 1,2 -1,2 1,0 3,5 4,3 9,2 11 6 14 8 SE 1025,1 0,0
14.12.2018 22:00:00 1,3 -1,6 0,9 3,5 4,3 9,2 11 6 18 10 E 1025,1 0,0
14.12.2018 21:00:00 1,4 -1,9 0,9 3,5 4,3 9,2 14 8 18 10 E 1024,9 0,0
14.12.2018 20:00:00 1,4 -1,5 0,7 3,5 4,3 9,3 7 4 14 8 E 1025,3 0,0
14.12.2018 19:00:00 0,9 -0,9 0,5 3,5 4,3 9,3 7 4 14 8 ENE 1025,5 0,0
14.12.2018 18:00:00 1,0 -0,6 0,6 3,5 4,3 9,3 7 4 14 8 E 1025,0 0,0
14.12.2018 17:00:00 1,2 -0,7 0,6 3,5 4,3 9,3 11 6 14 8 ENE 1025,1 0,0
14.12.2018 16:00:00 1,2 -0,3 1,0 3,5 4,2 9,3 11 6 14 8 E 1024,6 0,0
14.12.2018 15:00:00 1,1 -0,3 0,9 3,4 4,2 9,3 11 6 18 10 E 1023,8 0,0
14.12.2018 14:00:00 1,3 0,0 1,4 3,2 4,2 9,3 11 6 22 12 E 1023,4 0,0
14.12.2018 13:00:00 0,9 -0,3 0,9 3,1 4,2 9,4 18 10 29 16 E 1023,5 0,0
14.12.2018 12:00:00 1,0 -0,2 0,9 3,1 4,2 9,4 18 10 29 16 E 1023,5 0,0
14.12.2018 11:00:00 0,9 -0,4 0,5 3,1 4,3 9,4 22 12 32 18 E 1023,9 0,0
14.12.2018 10:00:00 0,8 -0,4 0,0 3,1 4,3 9,4 18 10 25 14 ENE 1023,7 0,0
14.12.2018 09:00:00 0,5 -0,7 -0,4 3,1 4,3 9,4 18 10 25 14 ENE 1023,5 0,0
14.12.2018 08:00:00 0,5 -0,7 -0,4 3,2 4,4 9,4 14 8 25 14 ENE 1023,0 0,0
14.12.2018 07:00:00 0,5 -0,5 -0,4 3,2 4,4 9,4 14 8 22 12 ENE 1022,6 0,0
14.12.2018 06:00:00 0,3 -0,7 -0,5 3,3 4,5 9,4 14 8 22 12 ENE 1022,1 0,0
14.12.2018 05:00:00 0,5 -0,6 -0,4 3,3 4,5 9,5 14 8 22 12 ENE 1021,9 0,0
14.12.2018 04:00:00 0,7 -0,5 -0,1 3,4 4,5 9,5 14 8 22 12 ENE 1021,9 0,0
14.12.2018 03:00:00 0,9 -0,5 0,0 3,4 4,6 9,5 14 8 32 18 ENE 1022,3 0,0
14.12.2018 02:00:00 1,4 -0,2 1,0 3,4 4,6 9,5 22 12 29 16 ENE 1022,0 0,0
14.12.2018 01:00:00 1,3 -0,1 0,6 3,5 4,7 9,5 18 10 25 14 ENE 1021,9 0,0
14.12.2018 00:00:00 0,8 -0,5 0,0 3,6 4,7 9,5 14 8 29 16 ENE 1022,0 0,0
13.12.2018 23:00:00 1,1 -0,6 -0,1 3,6 4,8 9,5 14 8 29 16 ENE 1021,8 0,0
13.12.2018 22:00:00 1,1 -0,8 0,1 3,7 4,8 9,5 18 10 29 16 E 1021,7 0,0
13.12.2018 21:00:00 0,9 -0,9 0,0 3,8 4,9 9,5 18 10 29 16 E 1021,4 0,0
13.12.2018 20:00:00 1,1 -0,9 0,3 3,9 4,9 9,6 18 10 32 18 E 1021,0 0,0
13.12.2018 19:00:00 1,1 -1,0 0,3 4,0 5,0 9,6 22 12 36 19 E 1020,6 0,0
13.12.2018 18:00:00 1,6 -0,9 0,7 4,1 5,0 9,6 25 14 36 19 E 1020,5 0,0
13.12.2018 17:00:00 1,8 -1,7 0,8 4,2 5,0 9,6 22 12 32 18 E 1020,5 0,0
13.12.2018 16:00:00 2,4 -1,7 1,7 4,3 5,0 9,6 22 12 36 19 E 1019,9 0,0
13.12.2018 15:00:00 3,0 -1,4 2,8 4,2 4,9 9,6 22 12 36 19 E 1019,5 0,0
13.12.2018 14:00:00 3,3 -1,4 3,4 4,1 4,9 9,6 25 14 36 19 E 1019,8 0,0
13.12.2018 13:00:00 3,3 -0,1 3,5 3,9 4,9 9,6 22 12 36 19 E 1020,0 0,0
13.12.2018 12:00:00 2,6 -0,4 2,8 3,8 4,9 9,6 25 14 36 19 E 1020,4 0,0
13.12.2018 11:00:00 1,9 0,1 1,6 3,8 5,0 9,7 22 12 32 18 E 1020,9 0,0
13.12.2018 10:00:00 1,2 -0,1 0,7 3,8 5,0 9,7 22 12 32 18 E 1020,8 0,0
13.12.2018 09:00:00 1,1 -0,2 0,4 3,8 5,1 9,7 22 12 32 18 E 1020,8 0,0
13.12.2018 08:00:00 1,1 -0,3 0,3 3,9 5,1 9,7 22 12 29 16 E 1020,9 0,0
13.12.2018 07:00:00 1,4 -0,1 0,3 3,9 5,2 9,7 18 10 25 14 E 1020,8 0,0
13.12.2018 06:00:00 0,9 -0,2 0,1 4,0 5,2 9,7 14 8 25 14 E 1020,9 0,0
13.12.2018 05:00:00 1,2 -0,2 0,2 4,1 5,3 9,7 18 10 25 14 E 1021,1 0,0
13.12.2018 04:00:00 0,9 -0,3 -0,1 4,1 5,3 9,7 14 8 22 12 E 1021,7 0,0
13.12.2018 03:00:00 1,3 0,0 0,5 4,2 5,4 9,7 18 10 29 16 E 1022,0 0,0
13.12.2018 02:00:00 1,7 -0,2 0,7 4,3 5,5 9,8 18 10 29 16 E 1022,3 0,0
13.12.2018 01:00:00 1,8 -0,1 0,7 4,3 5,5 9,8 18 10 25 14 E 1022,7 0,0
13.12.2018 00:00:00 1,9 0,4 0,9 4,4 5,6 9,8 18 10 29 16 E 1023,0 0,0
12.12.2018 23:00:00 2,2 0,3 1,1 4,5 5,6 9,8 18 10 29 16 E 1023,3 0,0
12.12.2018 22:00:00 2,4 -0,3 1,4 4,6 5,7 9,8 22 12 29 16 E 1023,7 0,0
12.12.2018 21:00:00 2,5 -0,8 0,6 4,7 5,7 9,8 18 10 25 14 E 1023,8 0,0
12.12.2018 20:00:00 1,9 -0,7 0,6 4,8 5,8 9,8 14 8 18 10 E 1024,3 0,0
12.12.2018 19:00:00 2,2 0,7 0,9 4,9 5,8 9,8 11 6 18 10 E 1024,6 0,0
12.12.2018 18:00:00 2,7 0,9 1,6 5,0 5,8 9,8 14 8 25 14 E 1024,6 0,0
12.12.2018 17:00:00 3,6 1,6 2,7 5,1 5,8 9,8 14 8 22 12 E 1024,7 0,0
12.12.2018 16:00:00 4,0 2,4 3,3 5,1 5,7 9,8 11 6 18 10 E 1024,5 0,0
12.12.2018 15:00:00 4,8 2,4 4,8 5,0 5,7 9,9 11 6 18 10 E 1024,8 0,0
12.12.2018 14:00:00 4,9 2,7 5,3 4,7 5,6 9,9 11 6 14 8 E 1025,2 0,0
12.12.2018 13:00:00 4,7 2,7 5,5 4,4 5,6 9,9 11 6 14 8 ENE 1025,5 0,0
12.12.2018 12:00:00 4,5 2,7 5,3 4,3 5,7 9,9 7 4 14 8 ESE 1026,0 0,0
12.12.2018 11:00:00 3,4 2,3 2,8 4,3 5,8 9,9 7 4 14 8 ESE 1027,0 0,0
12.12.2018 10:00:00 1,7 1,6 -0,2 4,4 5,9 9,9 7 4 14 8 ESE 1026,1 0,0
12.12.2018 09:00:00 1,8 1,5 -3,4 4,5 6,0 9,9 7 4 14 8 E 1026,9 0,0
12.12.2018 08:00:00 -0,1 -0,3 -3,5 4,7 6,1 9,9 7 4 7 4 ESE 1026,5 0,0
12.12.2018 07:00:00 0,1 -0,1 -3,4 4,8 6,2 9,9 4 2 7 4 ESE 1025,4 0,0
12.12.2018 06:00:00 -0,1 -0,3 -3,0 5,0 6,3 9,9 4 2 4 2 SSW 1025,3 0,0
12.12.2018 05:00:00 -0,9 -1,3 -2,5 5,1 6,4 9,9 4 2 7 4 S 1025,3 0,0
12.12.2018 04:00:00 0,0 -0,3 -2,6 5,3 6,5 9,9 7 4 7 4 ESE 1025,2 0,0
12.12.2018 03:00:00 1,0 0,3 -1,6 5,4 6,6 9,9 0 0 7 4 N 1025,3 0,0
12.12.2018 02:00:00 3,1 2,1 -0,1 5,5 6,7 9,9 4 2 18 10 E 1025,1 0,0
12.12.2018 01:00:00 2,2 1,0 0,8 5,6 6,7 10,0 4 2 4 2 SSW 1025,0 0,0
12.12.2018 00:00:00 2,5 1,7 0,3 5,7 6,8 10,0 4 2 11 6 E 1025,3 0,0
11.12.2018 23:00:00 2,4 1,4 0,9 5,8 6,9 10,0 0 0 14 8 N 1025,3 0,0
11.12.2018 22:00:00 1,4 0,2 0,4 5,9 7,0 10,0 4 2 7 4 SSW 1025,3 0,0
11.12.2018 21:00:00 0,7 0,0 -1,5 6,1 7,1 10,0 4 2 7 4 SW 1025,2 0,0
11.12.2018 20:00:00 0,8 0,0 -1,4 6,3 7,2 10,0 7 4 7 4 WSW 1025,3 0,0
11.12.2018 19:00:00 1,9 1,0 -1,2 6,6 7,3 10,0 7 4 7 4 WSW 1025,1 0,0
11.12.2018 18:00:00 3,9 1,3 0,8 6,8 7,3 10,0 4 2 7 4 W 1024,8 0,0
11.12.2018 17:00:00 5,3 2,8 3,8 6,9 7,3 10,0 4 2 14 8 WNW 1024,9 0,0
11.12.2018 16:00:00 7,1 3,7 6,5 7,0 7,2 10,0 4 2 7 4 NW 1024,8 0,0
11.12.2018 15:00:00 7,3 3,4 6,8 6,9 7,2 10,0 7 4 14 8 WNW 1024,8 0,0
11.12.2018 14:00:00 7,7 2,2 7,7 6,7 7,1 10,0 11 6 14 8 NW 1025,1 0,0
11.12.2018 13:00:00 7,6 2,6 7,3 6,5 7,1 10,0 11 6 18 10 NW 1025,4 0,0
11.12.2018 12:00:00 7,3 3,0 7,5 6,3 7,1 10,0 11 6 18 10 WNW 1025,7 0,0
11.12.2018 11:00:00 6,8 3,2 5,6 6,2 7,1 10,0 7 4 18 10 NW 1025,8 0,0
11.12.2018 10:00:00 4,9 1,5 3,5 6,2 7,1 10,0 7 4 7 4 WSW 1025,7 0,0
11.12.2018 09:00:00 4,1 1,3 2,8 6,3 7,2 10,0 11 6 18 10 WNW 1025,4 0,0
11.12.2018 08:00:00 4,8 1,7 3,8 6,3 7,2 10,0 11 6 14 8 NW 1025,2 0,0
11.12.2018 07:00:00 4,2 1,5 3,3 6,3 7,3 10,1 4 2 14 8 W 1025,3 0,0
11.12.2018 06:00:00 3,9 0,8 2,2 6,4 7,4 10,1 11 6 18 10 WNW 1025,4 0,0
11.12.2018 05:00:00 3,9 0,7 2,9 6,5 7,4 10,1 14 8 18 10 W 1025,1 0,0
11.12.2018 04:00:00 4,3 1,1 3,0 6,6 7,5 10,1 11 6 22 12 WNW 1025,6 0,0
11.12.2018 03:00:00 4,9 1,7 3,8 6,7 7,5 10,1 11 6 22 12 NW 1025,7 0,0
11.12.2018 02:00:00 5,3 1,7 4,6 6,7 7,6 10,1 14 8 25 14 NW 1025,7 0,0
11.12.2018 01:00:00 5,6 1,5 4,7 6,8 7,7 10,1 14 8 22 12 WNW 1025,9 0,0
11.12.2018 00:00:00 5,2 1,8 3,7 6,9 7,7 10,1 14 8 18 10 WNW 1025,8 0,0
10.12.2018 23:00:00 5,5 1,8 4,5 7,0 7,8 10,1 14 8 18 10 NW 1025,8 0,0
10.12.2018 22:00:00 5,4 1,5 4,1 7,2 7,9 10,1 14 8 18 10 NW 1025,6 0,0
10.12.2018 21:00:00 5,9 1,8 5,3 7,3 7,9 10,1 18 10 25 14 NW 1025,7 0,0
10.12.2018 20:00:00 6,6 3,2 5,7 7,4 7,9 10,1 18 10 29 16 NW 1025,5 0,0
10.12.2018 19:00:00 6,2 3,9 5,7 7,4 7,9 10,1 18 10 36 19 WNW 1025,5 0,0
10.12.2018 18:00:00 6,6 3,2 6,1 7,5 8,0 10,1 25 14 36 19 NNW 1025,6 0,1
10.12.2018 17:00:00 6,6 3,6 5,9 7,5 8,0 10,1 25 14 40 21 NW 1025,0 0,1
10.12.2018 16:00:00 7,2 4,4 6,7 7,5 7,9 10,1 25 14 36 19 NW 1024,8 0,0
10.12.2018 15:00:00 6,6 4,3 6,4 7,5 7,9 10,1 25 14 47 25 NW 1024,3 0,0
10.12.2018 14:00:00 8,2 4,1 8,3 7,4 7,9 10,1 32 18 47 25 WNW 1023,9 0,0
10.12.2018 13:00:00 8,0 4,4 8,1 7,3 7,8 10,1 32 18 47 25 WNW 1023,9 0,0
10.12.2018 12:00:00 7,6 3,8 7,4 7,1 7,9 10,1 29 16 43 23 WNW 1023,9 0,0
10.12.2018 11:00:00 7,4 3,5 7,0 7,1 7,9 10,1 29 16 43 23 NW 1023,6 0,0
10.12.2018 10:00:00 7,0 3,8 6,5 7,1 8,0 10,1 22 12 29 16 WNW 1023,2 0,0
10.12.2018 09:00:00 6,1 2,8 5,2 7,1 8,0 10,1 18 10 29 16 WNW 1022,7 0,0
10.12.2018 08:00:00 6,1 2,8 5,1 7,2 8,1 10,1 22 12 32 18 WNW 1022,2 0,0
10.12.2018 07:00:00 6,1 3,0 5,0 7,3 8,2 10,1 18 10 29 16 WNW 1021,7 0,0
10.12.2018 06:00:00 6,0 2,5 5,0 7,4 8,3 10,1 18 10 29 16 WNW 1021,4 0,0
10.12.2018 05:00:00 6,2 3,1 5,1 7,5 8,4 10,1 18 10 25 14 WNW 1020,9 0,0
10.12.2018 04:00:00 6,1 3,2 5,2 7,6 8,5 10,1 18 10 32 18 WNW 1020,4 0,0
10.12.2018 03:00:00 6,8 3,1 5,6 7,8 8,5 10,1 22 12 36 19 WNW 1020,0 0,0
10.12.2018 02:00:00 6,5 2,9 5,6 7,9 8,6 10,1 22 12 29 16 WNW 1019,5 0,0
10.12.2018 01:00:00 6,8 3,7 5,8 8,0 8,7 10,1 22 12 36 19 WNW 1019,0 0,0
10.12.2018 00:00:00 7,2 3,8 6,3 8,1 8,7 10,1 25 14 40 21 WNW 1018,3 0,0
09.12.2018 23:00:00 7,3 4,1 6,6 8,2 8,8 10,1 29 16 36 19 WNW 1017,5 0,0
09.12.2018 22:00:00 7,2 3,7 6,6 8,3 8,9 10,1 32 18 50 27 WNW 1016,4 0,0
09.12.2018 21:00:00 7,2 4,6 6,6 8,4 8,9 10,1 32 18 50 27 WNW 1015,5 0,2
09.12.2018 20:00:00 7,4 4,9 7,3 8,5 9,0 10,1 29 16 50 27 NW 1014,4 0,0
09.12.2018 19:00:00 8,1 4,4 7,5 8,6 9,0 10,1 36 19 61 33 WNW 1013,3 0,0
09.12.2018 18:00:00 8,2 4,6 7,8 8,7 9,0 10,1 40 21 54 29 WNW 1011,7 0,0
09.12.2018 17:00:00 8,1 4,9 7,5 8,8 9,1 10,1 36 19 54 29 WNW 1010,0 0,0
09.12.2018 16:00:00 8,5 4,9 7,9 8,9 9,0 10,1 40 21 58 31 NW 1008,4 0,0
09.12.2018 15:00:00 8,7 6,2 8,1 8,9 9,0 10,1 32 18 58 31 WNW 1006,5 0,4
09.12.2018 14:00:00 9,5 6,3 9,3 8,9 9,0 10,1 40 21 58 31 NW 1004,9 0,0
09.12.2018 13:00:00 9,9 7,1 9,5 8,8 9,0 10,1 36 19 54 29 NW 1003,4 0,1

tt = Température de l'air
td = dewpoint
tt 5cm = Température de l'air 5cm
tt -5cm = Température de l'air -5cm
tt -20cm = Température de l'air -20cm
tt -100cm = Température de l'air -100cm
ff = Vitesse du vent
fx = gusts
dd = Direction du vent
ppp = reduced air pressure
rr = Quantités de précipitations

stations d'obs. à proximité